Regional Weather Roundup
Issued by NWS Midland/Odessa, TX

Skip options and go directly to product.
Home | Oldest Version | Previous Version | Current Version | All | Text Only | Save Text | Print | Product List | Glossary On

Skip product version selection by date and time.   
405
ASUS44 KMAF 181510
RWRMAF
MIDLAND AREA WEATHER ROUNDUP
NATIONAL WEATHER SERVICE MIDLAND TX
1000 AM CDT THU SEP 18 2014

...IN SOUTHWEST TEXAS AND SOUTHEAST NEW MEXICO...

CITY           SKY/WX    TMP DP  RH WIND       PRES   REMARKS
ALPINE         PTSUNNY   70  63  79 CALM      30.11R
ANDREWS        PTSUNNY   69  65  89 W3        29.98S
ARTESIA        NOT AVBL
BIG SPRING     CLOUDY    74  70  88 SW5       29.99R
CARLSBAD       CLOUDY    67  67 100 SW6       29.99R
DRYDEN           N/A     81  70  69 E6        29.91R
FORT STOCKTON  CLOUDY    73  68  84 W10       29.98R
GUAD PASS      CLOUDY    61  57  88 NE22      30.10S
HOBBS          MOSUNNY   64  64 100 CALM      29.99F
MARFA          CLOUDY    70  63  78 NE8       30.07S
MIDLAND AIRPK  CLOUDY    73  73 100 NE3       29.98S
MIDLAND INTL   CLOUDY    72  70  93 NE8       29.97S
ODESSA         CLOUDY    71  67  87 N5        29.98S
PECOS          CLOUDY    70  65  83 NW6       29.96F
PRESIDIO       FAIR      80  67  64 NE8       29.93S
SEMINOLE       CLOUDY    68  65  89 W6        29.99S
SNYDER         CLOUDY    71  70  97 E5        29.98R THUNDER FOG
WINK           CLOUDY    73  68  84 NE6       29.94F
$$
...OTHER STATIONS IN TEXAS...

CITY           SKY/WX    TMP DP  RH WIND       PRES   REMARKS
ABILENE        CLOUDY    76  70  82 S5        29.95R
AMARILLO       CLOUDY    66  63  90 S10       30.05R
AUSTIN         PTSUNNY   76  72  87 W3        29.89S
BROWNSVILLE    MOSUNNY   86  78  77 S16       29.88R
CORPUS CHRISTI CLOUDY    83  77  82 S12       29.88R
DALLAS FTW     PTSUNNY   79  72  79 SE6       29.94R
DEL RIO        CLOUDY    77  73  87 E10       29.88R
EL PASO        LGT RAIN  66  64  93 N9        29.99R
HOUSTON INT    TSTM      75  74  96 S10       29.92R VSB 1
LUBBOCK        TSTM      65  63  93 NE15      30.03R FOG
SAN ANGELO     CLOUDY    77  69  76 SE5       29.94S
SAN ANTONIO    PTSUNNY   82  73  74 SW9       29.89F
WACO           CLOUDY    76  74  93 SE5       29.91R
WICHITA FALLS  NOT AVBL
$$
...OTHER LOCATIONS IN NEW MEXICO...

CITY           SKY/WX    TMP DP  RH WIND       PRES   REMARKS
ALAMAGORDO     CLOUDY    64  64 100 S6        30.03S
ALBUQUERQUE    MOSUNNY   62  52  69 N5        30.10S
CANNON AFB     LGT RAIN  66  65  97 E8        30.05R
CLOVIS           N/A     64  63  94 SE7       30.07R
HOLLOMAN AFB   PTSUNNY   66  64  92 SW2       30.01S
ROSWELL        CLOUDY    67  65  93 S9        30.00S
RUIDOSO        FOG       57  57 100 NE3       30.19R VSB<1/4
SANTA FE       SUNNY     60  42  51 N17       30.15R
TRUTH OR CONSE CLOUDY    65  62  90 N5        30.05R
TUCUMCARI      MOSUNNY   68  62  81 NW3       30.03S
$$

USA.gov is the U.S. government's official web portal to all federal, state and local government web resources and services.